PST,Max TemperatureF,Mean TemperatureF,Min TemperatureF,Max Dew PointF,MeanDew PointF,Min DewpointF,Max Humidity, Mean Humidity, Min Humidity, Max Sea Level PressureIn, Mean Sea Level PressureIn, Min Sea Level PressureIn, Max VisibilityMiles, Mean VisibilityMiles, Min VisibilityMiles, Max Wind SpeedMPH, Mean Wind SpeedMPH, Max Gust SpeedMPH,PrecipitationIn, CloudCover, Events, WindDirDegrees
2014-2-1,61,44,27,37,32,26,100,64,27,30.14,30.08,30.02,10,10,10,13,4,16,0.00,1,,229
2014-2-2,45,40,34,41,38,35,96,86,76,30.03,29.92,29.86,10,9,4,15,6,20,0.63,7,Rain,45
2014-2-3,57,44,30,41,34,30,100,72,43,30.06,30.02,29.96,10,9,2,13,4,16,0.00,1,Fog,311
2014-2-4,55,43,30,37,33,30,100,73,46,30.15,30.09,30.06,10,10,8,8,2,11,0.00,3,,261
2014-2-5,52,40,27,43,35,27,100,76,52,30.18,30.12,30.04,10,8,1,8,2,10,0.30,4,Rain,1
2014-2-6,51,47,43,48,46,42,100,89,77,30.01,29.94,29.89,10,6,2,9,3,12,0.54,8,Rain,157
2014-2-7,54,51,47,53,49,47,100,97,93,30.05,29.99,29.93,10,4,0,17,7,23,1.42,8,Fog-Rain,156
2014-2-8,57,55,53,56,54,52,100,97,93,30.11,30.04,29.98,6,3,1,15,8,24,3.46,8,Rain,159
2014-2-9,58,56,54,57,55,53,100,97,93,30.11,30.06,30.00,10,4,2,13,6,18,0.74,8,Rain,182
2014-2-10,62,55,48,55,51,48,100,86,72,30.27,30.18,30.07,10,5,0,8,3,12,0.00,6,Fog,172
2014-2-11,63,52,41,51,46,41,100,82,64,30.24,30.20,30.14,10,4,0,10,3,13,0.00,5,Fog,156
2014-2-12,59,53,47,52,49,46,100,88,75,30.27,30.22,30.17,10,4,0,8,2,9,0.00,8,Fog,177
2014-2-13,67,59,51,57,53,51,100,87,73,30.22,30.15,30.07,10,6,0,8,3,8,0.00,7,Fog,177
2014-2-14,65,59,53,54,53,51,100,82,63,30.16,30.10,30.03,10,7,1,12,4,15,0.00,8,,169
2014-2-15,57,55,52,54,53,51,100,93,86,30.02,29.98,29.94,10,6,0,13,6,19,T,8,Rain,182
2014-2-16,65,52,38,50,42,35,100,68,36,30.19,30.12,30.01,10,7,0,12,3,15,0.00,2,Fog,296
2014-2-17,65,50,35,44,39,35,100,69,37,30.17,30.12,30.08,10,8,1,18,4,22,0.00,1,Fog,296
2014-2-18,64,52,40,49,45,39,100,78,56,30.19,30.12,30.06,10,10,6,9,3,12,0.00,3,Fog,262
2014-2-19,66,55,43,49,43,36,100,67,34,30.19,30.12,30.05,10,7,0,14,6,17,T,1,Fog,318
2014-2-20,71,56,41,44,40,37,86,59,31,30.20,30.14,30.08,10,10,10,12,5,15,0.00,3,,355
2014-2-21,72,55,37,49,43,38,100,67,33,30.10,30.03,29.95,10,10,9,10,3,13,0.00,0,,249
2014-2-22,70,54,38,48,44,38,100,68,36,30.01,29.96,29.89,10,7,0,13,4,15,0.00,1,Fog,175
2014-2-23,70,56,42,52,45,42,100,76,52,30.01,29.97,29.93,10,5,0,10,3,11,0.00,1,Fog,169
2014-2-24,74,55,36,47,40,36,100,65,29,29.99,29.95,29.88,10,6,0,9,3,12,0.00,1,Fog,190
2014-2-25,62,51,39,49,44,39,100,80,60,29.98,29.93,29.89,10,6,0,16,4,21,0.00,4,Fog,219
2014-2-26,56,53,49,55,52,47,100,93,86,29.93,29.76,29.63,10,5,1,22,7,30,1.56,8,Rain,139
2014-2-27,62,58,53,51,49,43,93,77,60,29.87,29.75,29.49,10,9,5,17,8,24,0.02,6,Rain,186
2014-2-28,59,55,51,54,51,44,93,73,53,29.48,29.38,29.34,10,8,2,22,10,29,0.67,8,Rain,132